This demonstration page uses our WeatherBlox Daily Observations layout. Learn more.

Left ArrowRight Arrow

39.51506, -84.39828

Hourly Observations for March 22, 2018

Temp ( °F °C ) Dew Point ( °F °C ) Humidity (%) Winds ( mph kmh ) Pressure ( in mb ) Visibility ( mi km ) Precip ( " mm )
12:15 am 00:15 Clear 32 -0.2 20 -6.7 62 62 NW 5 7 30.21 1023 10 16.0934 N/A
12:35 am 00:35 Clear 32 -0.2 19 -7.4 59 59 N N/A 30.21 1023 10 16.0934 N/A
12:55 am 00:55 Clear 31 -0.7 19 -7.4 61 61 NW 5 7 30.21 1023 10 16.0934 N/A
1:15 am 01:15 Clear 30 -1.2 19 -7.4 63 63 NW 7 11 30.21 1023 10 16.0934 N/A
1:35 am 01:35 Clear 31 -0.8 19 -7.1 63 63 NW 5 7 30.21 1023 10 16.0934 N/A
1:55 am 01:55 Clear 31 -0.8 19 -7.1 63 63 NNW 3 6 30.21 1023 10 16.0934 N/A
2:15 am 02:15 Clear 30 -1.1 20 -6.6 67 67 NNW 6 9 30.21 1023 10 16.0934 N/A
2:35 am 02:35 Clear 30 -1 20 -6.7 66 66 NNW 7 11 30.21 1023 10 16.0934 N/A
2:55 am 02:55 Clear 30 -1 20 -6.7 66 66 NNW 7 11 30.21 1023 10 16.0934 N/A
3:15 am 03:15 Clear 29 -1.4 20 -6.8 67 67 NNW 6 9 30.21 1023 10 16.0934 N/A
3:35 am 03:35 Clear 29 -1.8 19 -7 68 68 NNW 5 7 30.21 1023 10 16.0934 N/A
3:55 am 03:55 Clear 28 -2.1 19 -7 69 69 N 6 9 30.21 1023 10 16.0934 N/A
4:15 am 04:15 Clear 28 -2 19 -7 69 69 NNW 7 11 30.21 1023 10 16.0934 N/A
4:35 am 04:35 Clear 28 -2 19 -7.4 67 67 NNW 6 9 30.24 1024 10 16.0934 N/A
4:55 am 04:55 Clear 28 -2.4 19 -7.5 68 68 N 3 6 30.24 1024 10 16.0934 N/A
5:15 am 05:15 Clear 26 -3.4 19 -7.4 74 74 N N/A 30.24 1024 10 16.0934 N/A
5:35 am 05:35 Clear 26 -3.5 19 -7.2 76 76 N N/A 30.24 1024 10 16.0934 N/A
5:55 am 05:55 Clear 22 -5.7 16 -8.7 80 80 ESE 3 6 30.27 1025 10 16.0934 N/A
6:15 am 06:15 Clear 21 -6.1 17 -8.4 84 84 E 3 6 30.27 1025 10 16.0934 N/A
6:35 am 06:35 Clear 21 -5.9 16 -8.7 81 81 N N/A 30.3 1026 10 16.0934 N/A
6:55 am 06:55 Clear 24 -4.7 18 -7.8 79 79 N N/A 30.27 1025 10 16.0934 N/A
7:15 am 07:15 Clear 22 -5.5 18 -7.8 84 84 N N/A 30.3 1026 10 16.0934 N/A
7:35 am 07:35 Clear 19 -7.3 16 -9.1 87 87 N N/A 30.3 1026 10 16.0934 N/A
7:55 am 07:55 Sunny 24 -4.7 19 -7.1 84 84 N N/A 30.27 1025 10 16.0934 N/A
8:15 am 08:15 Sunny 21 -6 17 -8.4 83 83 N N/A 30.33 1027 10 16.0934 N/A
8:35 am 08:35 Sunny 23 -4.9 19 -7.4 83 83 N N/A 30.33 1027 10 16.0934 N/A
8:55 am 08:55 Sunny 25 -3.7 19 -7.3 76 76 N N/A 30.3 1026 10 16.0934 N/A
9:15 am 09:15 Sunny 27 -2.8 20 -6.9 74 74 N N/A 30.3 1026 10 16.0934 N/A
9:35 am 09:35 Sunny 28 -2.1 20 -6.7 71 71 N N/A 30.33 1027 10 16.0934 N/A
9:55 am 09:55 Sunny 29 -1.4 21 -6.3 70 70 N 7 11 30.33 1027 10 16.0934 N/A
10:15 am 10:15 Sunny 30 -1.2 21 -6 70 70 N 10 17 30.33 1027 10 16.0934 N/A
10:35 am 10:35 Sunny 31 -0.7 22 -5.7 69 69 N 7 11 30.33 1027 10 16.0934 N/A
10:55 am 10:55 Sunny 32 -0.2 22 -5.4 68 68 N N/A 30.33 1027 10 16.0934 N/A
11:15 am 11:15 Sunny 33 0.4 22 -5.7 64 64 N 5 7 30.33 1027 10 16.0934 N/A
11:35 am 11:35 Sunny 34 0.9 22 -5.4 63 63 N 6 9 30.33 1027 10 16.0934 N/A
11:55 am 11:55 Sunny 34 1.3 22 -5.5 61 61 NNE 6 9 30.33 1027 10 16.0934 N/A
12:15 pm 12:15 Sunny 35 1.8 22 -5.4 59 59 NW 6 9 30.36 1028 10 16.0934 N/A
12:35 pm 12:35 Sunny 36 2.3 24 -4.4 62 62 NW 3 6 30.36 1028 10 16.0934 N/A
12:55 pm 12:55 Sunny 38 3.2 26 -3.4 62 62 WNW 8 13 30.33 1027 10 16.0934 N/A
1:15 pm 13:15 Sunny 38 3.5 26 -3.4 61 61 W 6 9 30.33 1027 10 16.0934 N/A
1:35 pm 13:35 Partly Cloudy 39 3.8 24 -4.2 56 56 WNW 6 9 30.33 1027 10 16.0934 N/A
1:55 pm 13:55 Sunny 39 3.8 24 -4.5 55 55 WNW 6 9 30.36 1028 10 16.0934 N/A
2:15 pm 14:15 Sunny 40 4.6 24 -4.6 52 52 NW 9 15 30.33 1027 10 16.0934 N/A
2:35 pm 14:35 Sunny 41 5.1 24 -4.4 51 51 NNW 7 11 30.33 1027 10 16.0934 N/A
2:55 pm 14:55 Partly Cloudy 41 4.9 22 -5.4 48 48 NNW 9 15 30.33 1027 10 16.0934 N/A
3:15 pm 15:15 Partly Cloudy 42 5.4 24 -4.3 50 50 W 8 13 30.33 1027 10 16.0934 N/A
3:35 pm 15:35 Sunny 42 5.6 23 -4.8 47 47 W 12 19 30.33 1027 10 16.0934 N/A
3:55 pm 15:55 Sunny 42 5.6 21 -6.2 43 43 WNW 9 15 30.33 1027 10 16.0934 N/A
4:15 pm 16:15 Sunny 42 5.4 20 -6.4 43 43 W 10 17 30.33 1027 10 16.0934 N/A
4:35 pm 16:35 Sunny 43 6.1 20 -6.5 40 40 NW 10 17 30.33 1027 10 16.0934 N/A
4:55 pm 16:55 Sunny 43 6.2 20 -6.8 39 39 NNW 10 17 30.33 1027 10 16.0934 N/A
5:15 pm 17:15 Sunny 43 6.2 21 -6.1 41 41 NW 10 17 30.27 1025 10 16.0934 N/A
5:35 pm 17:35 Sunny 43 6.1 20 -6.5 40 40 N 8 13 30.27 1025 10 16.0934 N/A
5:55 pm 17:55 Sunny 43 6 20 -6.9 39 39 NW 6 9 30.3 1026 10 16.0934 N/A
6:15 pm 18:15 Sunny 42 5.8 19 -7.5 38 38 NW 12 19 30.33 1027 10 16.0934 N/A
6:35 pm 18:35 Sunny 43 5.9 20 -6.7 40 40 WNW 6 9 30.33 1027 10 16.0934 N/A
6:55 pm 18:55 Sunny 42 5.5 21 -6.1 43 43 W 7 11 30.33 1027 10 16.0934 N/A
7:15 pm 19:15 Sunny 41 5.1 21 -6.1 45 45 WNW 6 9 30.33 1027 10 16.0934 N/A
7:35 pm 19:35 Sunny 40 4.4 21 -6.1 47 47 N N/A 30.33 1027 10 16.0934 N/A
7:55 pm 19:55 Clear 38 3.6 21 -6 50 50 N N/A 30.3 1026 10 16.0934 N/A
8:15 pm 20:15 Clear 36 2.3 22 -5.4 57 57 N N/A 30.3 1026 10 16.0934 N/A
8:35 pm 20:35 Clear 34 1.2 25 -4.1 68 68 N N/A 30.3 1026 10 16.0934 N/A
8:55 pm 20:55 Clear 33 0.7 25 -3.7 73 73 N N/A 30.3 1026 10 16.0934 N/A
9:15 pm 21:15 Clear 32 undefined 25 -3.8 76 76 N N/A 30.33 1027 10 16.0934 N/A
9:35 pm 21:35 Clear 31 -0.8 24 -4.2 78 78 N N/A 30.33 1027 10 16.0934 N/A
9:55 pm 21:55 Clear 30 -1.3 23 -4.8 77 77 N N/A 30.33 1027 10 16.0934 N/A
10:15 pm 22:15 Clear 29 -1.6 23 -4.8 79 79 N N/A 30.33 1027 10 16.0934 N/A
10:35 pm 22:35 Clear 29 -1.7 23 -4.9 79 79 N N/A 30.33 1027 10 16.0934 N/A
10:55 pm 22:55 Clear 28 -2 23 -4.8 81 81 N N/A 30.33 1027 10 16.0934 N/A
11:15 pm 23:15 Clear 28 -2.2 24 -4.6 84 84 N N/A 30.33 1027 10 16.0934 N/A
11:35 pm 23:35 Clear 26 -3.2 23 -5.2 86 86 N N/A 30.33 1027 10 16.0934 N/A
11:55 pm 23:55 Clear 27 -2.8 25 -4.1 91 91 N N/A 30.33 1027 10 16.0934 N/A

Powered by AerisWeather